Wind_Speed
13 13 14 14 15 15 16 16 16 15 14 13 13 12 11 10 10 9 8 8 7 6 6 6 5 6 6 5 4 3 3 2 2 1 1 1 1 2 3 3 3 3 2 2 2 1 1 2 2
13 13 13 14 15 15 16 16 16 15 15 14 13 13 12 11 10 10 9 8 7 6 6 6 6 7 6 5 4 3 2 2 2 1 1 1 1 2 3 3 2 2 2 2 2 1 1 2 3
12 13 14 15 15 15 16 16 16 16 15 14 14 13 12 11 11 10 9 9 7 6 6 6 7 7 6 6 5 3 2 1 2 2 1 2 3 3 2 2 2 2 2 2 2 2 2 2 3
12 13 14 15 15 16 16 16 16 16 15 14 14 13 12 11 10 10 9 8 7 7 6 6 6 6 6 6 5 4 3 2 2 2 2 2 3 2 2 2 1 1 2 2 2 2 2 3 4
12 13 15 15 15 16 16 17 16 17 16 15 14 13 12 11 10 9 9 8 8 8 7 7 7 6 6 6 5 4 3 2 2 2 2 2 2 2 1 1 1 1 1 2 2 2 3 3 4
11 13 13 15 15 16 16 16 16 17 16 15 14 13 12 11 10 9 9 9 8 8 8 7 7 7 7 7 7 5 3 2 3 3 2 2 2 2 1 1 2 2 1 2 2 2 3 3 3
10 11 13 14 15 15 15 15 16 16 16 15 14 14 13 11 10 10 10 9 9 8 8 8 8 7 7 8 7 6 3 2 3 3 3 3 2 1 1 0 1 2 1 1 1 2 2 3 3
10 11 12 13 14 15 15 15 15 15 15 15 13 13 12 11 10 10 10 10 9 9 8 8 9 8 8 8 7 6 4 3 3 3 3 3 2 2 1 1 1 1 1 0 1 1 2 3 4
10 10 11 12 14 15 14 15 15 14 14 14 13 13 12 11 10 10 10 10 10 9 9 8 8 8 8 8 7 7 6 4 4 4 3 3 2 2 2 1 2 1 1 0 1 2 3 3 4
8 9 10 12 13 14 14 14 14 14 13 13 13 13 13 12 11 10 10 10 10 10 10 9 8 8 8 8 8 9 7 5 4 4 3 3 2 2 1 1 1 1 1 1 1 2 3 3 3
7 8 8 11 12 13 14 13 13 14 13 12 12 13 12 12 11 10 10 10 10 10 9 9 9 8 9 8 8 8 7 6 5 4 4 3 3 2 1 1 2 1 1 1 1 2 3 3 3
5 6 7 9 10 11 12 12 13 13 13 12 12 12 13 13 12 11 11 11 10 10 10 9 9 9 9 8 8 7 7 6 5 4 4 4 3 3 2 2 2 2 2 2 2 2 3 3 3
3 5 6 8 9 10 11 10 11 12 12 12 12 12 13 13 12 12 12 11 11 10 10 9 9 9 9 8 8 8 7 7 5 4 3 3 3 2 2 2 2 1 1 1 1 2 2 3 3
2 2 4 5 7 9 10 9 9 11 11 11 11 12 12 12 13 12 12 11 11 10 9 8 8 8 8 8 8 7 7 6 5 3 2 2 2 2 1 1 1 1 1 1 1 2 2 3 4
1 1 2 3 6 7 8 8 8 10 10 10 10 11 12 12 12 11 12 11 11 10 9 8 7 7 7 7 7 7 6 6 5 4 3 2 1 1 1 1 0 1 1 1 2 3 4 4 4
2 1 1 2 4 5 6 6 7 8 9 9 9 9 10 11 11 11 11 11 11 10 10 9 8 8 7 7 7 7 6 6 5 4 3 2 1 1 1 1 1 2 2 2 2 3 4 4 4
3 2 1 1 3 4 4 5 6 6 7 8 8 9 9 9 10 11 10 10 10 10 10 9 9 8 7 7 7 7 6 6 5 4 3 2 2 2 1 2 2 2 3 3 3 4 4 4 5
4 4 3 3 4 4 4 4 6 6 7 7 7 8 8 9 10 10 10 10 10 10 10 9 9 8 7 7 7 7 6 5 5 5 4 3 3 3 3 3 3 3 3 4 5 5 5 5 6
5 5 5 4 6 6 5 5 5 5 5 6 6 7 7 8 9 9 9 9 9 9 9 9 9 9 8 7 7 7 6 6 5 4 5 5 4 4 4 4 4 4 4 5 6 6 6 6 7
7 7 6 6 7 8 7 7 6 5 6 6 5 5 6 7 8 8 9 8 8 8 8 9 9 9 8 8 7 6 6 6 6 5 5 6 5 5 4 4 4 5 5 5 6 6 7 7 8
9 8 7 8 9 9 9 9 7 6 7 7 5 6 7 7 8 9 8 8 7 7 7 7 8 8 8 9 8 7 8 8 7 6 6 6 6 6 6 6 6 6 6 6 7 7 7 8 9
11 10 10 11 12 11 11 10 9 8 8 7 7 8 8 8 8 8 8 7 7 6 6 6 7 7 8 9 9 8 8 8 8 8 8 8 7 7 7 7 8 7 7 7 8 8 8 8 9
13 13 13 13 13 13 12 12 11 10 9 8 8 9 9 9 9 8 8 8 8 7 7 7 7 7 8 9 8 8 9 9 10 10 10 10 9 9 9 9 9 9 9 9 9 8 8 9 9
15 16 15 15 15 14 13 13 13 11 10 10 10 10 10 9 9 9 9 9 9 9 8 8 8 8 8 9 9 9 9 10 10 11 11 11 10 10 10 10 10 10 10 9 9 9 9 9 10
17 17 17 17 16 15 14 14 13 13 12 11 10 11 11 10 10 10 10 10 10 9 8 8 8 9 9 10 9 10 10 10 11 11 12 12 12 12 11 11 11 11 11 11 10 10 11 11 11
18 18 18 18 18 17 16 16 14 13 13 12 12 11 11 11 11 11 11 10 10 10 10 9 10 10 11 11 10 10 10 11 12 12 13 12 12 12 12 12 12 12 13 12 12 12 12 12 12
19 19 19 20 19 19 19 17 15 14 14 13 13 12 11 11 11 11 11 11 11 11 11 11 11 11 12 12 12 12 12 12 12 13 13 12 12 12 13 13 13 13 14 14 14 14 14 14 14
21 21 21 21 22 22 20 18 16 16 15 14 14 13 13 12 13 12 11 12 12 11 11 12 12 12 13 13 13 14 13 13 14 14 15 14 13 13 14 13 13 14 14 15 15 15 15 15 15
22 22 23 23 23 23 23 20 17 17 16 16 15 14 14 14 14 13 13 13 13 13 13 14 14 14 14 14 15 14 14 15 15 15 15 15 14 14 15 14 14 14 15 16 16 17 17 16 17
24 24 24 24 25 25 24 21 19 19 18 17 16 16 15 15 15 15 16 15 15 14 14 15 15 15 15 15 15 16 16 16 16 16 16 16 15 16 15 14 14 15 16 16 17 17 17 17 18
Wind_Direction
72 72 72 70 69 68 68 64 62 58 54 52 52 53 54 54 51 50 51 55 54 50 46 39 33 31 31 41 45 49 57 59 55 66 93 102 164 206 196 182 183 202 205 204 207 201 228 232 248
71 73 72 72 70 68 65 63 59 54 51 50 50 51 51 50 49 46 46 49 51 50 49 43 34 32 34 42 40 30 56 62 52 46 78 92 110 147 158 168 182 202 217 214 216 242 276 263 268
73 72 71 71 69 68 66 64 59 55 50 48 48 48 48 46 47 46 45 46 47 44 42 40 36 33 36 36 34 36 39 58 57 60 99 103 104 132 141 154 178 204 224 222 228 252 279 283 280
75 72 70 70 69 67 64 63 61 56 51 47 46 46 45 43 43 44 46 49 48 43 41 41 40 39 34 30 31 37 41 53 69 86 98 118 126 126 127 148 169 204 225 223 228 246 268 280 282
76 73 69 69 69 65 62 58 56 53 49 44 45 46 46 44 43 45 49 50 47 45 43 41 42 45 38 33 39 45 47 61 82 94 104 113 120 130 149 166 181 195 210 236 236 256 277 284 288
75 73 72 71 69 64 61 57 52 49 45 41 43 45 46 43 41 43 44 45 45 41 39 40 45 47 40 37 41 47 47 78 84 102 113 115 117 105 148 191 184 180 200 226 254 284 285 287 299
75 68 69 67 65 63 59 56 52 47 44 40 40 43 46 45 43 43 41 42 43 42 40 38 43 44 39 36 37 37 46 88 91 100 101 104 115 134 140 112 174 200 215 239 283 289 291 301 304
72 69 68 65 64 59 57 54 52 49 45 42 40 40 42 44 43 41 39 39 40 42 42 38 39 40 39 38 39 34 50 84 87 90 88 97 99 108 131 146 113 153 187 281 299 319 298 299 302
67 64 64 65 61 56 53 53 52 50 45 42 41 41 43 45 43 41 41 40 39 41 43 41 39 37 37 38 41 49 61 73 80 81 80 81 94 96 98 105 113 96 71 61 324 321 322 316 311
65 62 62 66 61 55 51 51 50 49 45 43 41 41 41 45 45 41 39 39 37 39 42 43 40 38 39 42 45 48 59 72 82 74 76 89 101 111 97 98 117 106 33 359 347 346 347 342 340
64 55 56 61 58 56 53 52 51 50 46 45 42 39 37 42 44 40 34 34 35 36 39 42 41 41 43 47 50 47 52 61 69 69 75 91 109 113 116 69 70 56 57 45 6 345 356 347 339
65 52 51 53 52 52 56 52 50 49 47 46 42 37 36 38 37 37 35 33 35 38 41 44 43 42 45 48 51 50 51 53 58 68 75 79 90 103 104 69 65 58 63 58 30 17 7 346 330
78 63 52 53 48 46 50 52 48 48 49 46 42 38 36 33 31 35 36 35 37 38 39 41 42 42 43 45 49 50 50 49 55 70 76 80 91 94 72 53 55 56 41 45 29 25 14 348 339
108 71 47 46 45 44 44 47 48 50 49 43 40 36 31 28 28 33 34 35 36 36 37 38 42 43 41 42 41 42 44 44 44 49 53 60 78 80 61 42 51 38 359 356 339 340 338 335 337
163 80 40 40 36 29 38 42 47 45 43 42 38 32 29 25 27 31 32 32 33 33 35 36 37 33 30 31 31 30 37 38 42 45 45 37 27 39 29 19 353 321 330 335 324 331 328 329 327
216 268 13 24 21 16 23 37 40 36 35 37 34 30 28 24 25 28 30 30 32 33 32 30 27 24 21 19 19 21 27 26 28 38 38 31 17 346 268 267 287 302 307 309 304 313 318 321 323
218 242 257 315 345 352 360 16 18 22 26 28 27 25 25 22 22 23 25 27 28 28 27 25 24 22 17 14 11 14 15 15 14 13 10 2 352 339 304 287 282 292 304 305 304 307 313 313 315
228 247 250 262 289 300 322 347 1 7 13 19 19 18 16 13 12 15 18 20 20 21 22 21 18 14 16 15 10 9 7 5 4 1 360 350 343 337 317 313 313 306 303 304 306 308 307 309 311
238 256 263 264 274 281 295 311 326 345 358 6 7 3 1 3 2 7 11 11 11 13 14 17 15 13 13 13 9 6 1 355 351 351 354 348 331 320 310 314 317 311 302 303 304 302 299 302 308
244 260 267 258 265 276 285 290 301 319 333 338 346 347 350 351 348 353 358 359 3 5 7 11 10 11 11 8 6 4 357 352 349 345 341 340 326 315 305 304 306 304 298 302 309 306 300 301 306
243 252 258 259 261 271 283 288 296 305 316 316 322 330 340 343 340 337 341 348 351 354 358 2 0 360 3 2 358 354 353 348 341 332 329 324 322 316 303 303 304 301 298 300 301 302 303 304 304
241 249 256 262 266 272 280 286 291 299 306 307 310 315 323 332 329 323 326 331 337 340 338 346 351 349 349 350 348 345 342 340 335 324 320 313 308 307 303 301 298 303 301 297 294 294 296 301 302
244 250 258 264 270 274 279 283 289 292 296 300 303 308 312 317 318 312 309 313 317 322 324 324 328 337 340 338 335 332 332 330 328 322 317 311 305 302 299 300 298 299 300 295 289 292 294 294 297
249 254 259 265 271 275 283 287 287 288 291 296 296 299 302 305 305 304 299 304 305 307 310 315 316 323 327 328 328 323 321 320 320 319 314 312 305 297 294 295 294 295 295 294 291 289 296 299 299
253 257 261 267 273 279 281 284 288 286 288 294 294 293 296 297 298 301 299 298 295 297 301 304 307 313 317 320 323 319 315 315 317 317 313 307 301 295 292 286 286 288 291 292 293 295 296 297 301
256 259 263 271 277 279 277 280 286 284 285 291 296 296 294 296 302 300 291 288 288 290 294 299 303 309 312 315 318 320 319 321 321 318 315 307 299 294 292 288 287 286 288 290 291 293 297 298 297
253 258 263 268 273 275 276 278 279 282 286 290 293 295 297 295 298 295 285 286 286 286 290 295 300 304 306 307 312 316 314 314 316 314 314 309 300 295 293 289 290 291 289 288 288 290 292 295 296
252 257 262 267 272 275 276 277 278 280 285 287 288 291 293 292 295 298 288 287 284 281 285 289 292 296 299 305 309 308 309 309 309 304 305 302 298 297 295 295 293 292 290 288 286 286 285 289 293
251 255 260 266 270 274 277 278 281 281 283 285 285 286 286 287 290 294 293 285 284 283 288 291 292 293 297 302 306 308 308 308 306 302 304 299 294 293 293 293 292 291 290 287 288 286 284 285 289
250 254 259 263 268 272 275 277 279 282 282 283 284 283 283 282 286 290 289 288 284 284 287 288 290 292 295 299 302 303 302 303 304 303 305 303 299 295 290 292 295 297 294 287 286 288 284 284 287
Height
5892 5891 5891 5892 5891 5889 5888 5887 5886 5885 5885 5884 5883 5882 5881 5881 5882 5883 5881 5879 5879 5878 5878 5877 5877 5876 5875 5874 5874 5874 5874 5873 5873 5874 5874 5874 5873 5874 5875 5876 5877 5878 5879 5880 5881 5882 5882 5883 5884
5894 5894 5894 5894 5892 5890 5890 5889 5888 5887 5887 5886 5885 5884 5883 5882 5882 5881 5880 5880 5879 5879 5878 5878 5877 5876 5876 5875 5874 5874 5874 5873 5874 5874 5874 5874 5874 5873 5874 5876 5877 5878 5879 5880 5881 5882 5882 5883 5883
5896 5896 5897 5895 5893 5892 5892 5891 5889 5889 5888 5887 5886 5885 5885 5884 5883 5882 5881 5881 5880 5880 5879 5878 5877 5876 5876 5875 5874 5874 5874 5874 5874 5874 5874 5874 5874 5875 5875 5877 5877 5878 5879 5880 5881 5881 5882 5882 5883
5898 5899 5898 5897 5895 5894 5893 5892 5891 5890 5889 5889 5888 5887 5886 5885 5885 5884 5883 5882 5881 5880 5879 5878 5878 5877 5876 5875 5874 5873 5873 5874 5874 5874 5874 5875 5875 5876 5877 5877 5878 5879 5879 5880 5881 5881 5881 5882 5882
5900 5900 5900 5898 5897 5896 5895 5894 5892 5891 5891 5890 5889 5888 5887 5887 5886 5885 5884 5883 5882 5882 5880 5879 5878 5877 5876 5875 5874 5874 5873 5873 5873 5874 5874 5875 5875 5876 5877 5877 5878 5879 5879 5880 5880 5881 5881 5881 5881
5903 5902 5901 5900 5898 5897 5896 5895 5894 5893 5893 5892 5891 5890 5889 5888 5887 5886 5885 5884 5883 5882 5881 5880 5879 5877 5876 5875 5874 5873 5873 5873 5873 5874 5874 5875 5875 5876 5876 5877 5878 5879 5879 5880 5880 5880 5881 5881 5881
5905 5904 5902 5901 5900 5899 5899 5897 5896 5895 5894 5893 5892 5891 5890 5889 5888 5887 5886 5885 5884 5883 5882 5881 5879 5878 5877 5875 5874 5873 5872 5872 5873 5874 5874 5875 5876 5876 5876 5877 5878 5878 5879 5879 5880 5880 5880 5880 5880
5906 5906 5904 5903 5902 5901 5900 5899 5897 5897 5896 5895 5894 5893 5892 5891 5889 5888 5887 5886 5885 5884 5883 5882 5880 5879 5877 5876 5875 5873 5871 5871 5872 5874 5875 5875 5876 5876 5877 5877 5878 5878 5878 5879 5879 5880 5880 5880 5880
5907 5908 5905 5904 5903 5903 5902 5900 5899 5898 5897 5896 5895 5894 5893 5891 5890 5889 5888 5887 5885 5884 5883 5882 5881 5880 5878 5877 5876 5874 5873 5872 5873 5874 5875 5875 5876 5876 5877 5877 5878 5878 5879 5879 5879 5879 5879 5879 5879
5909 5908 5907 5906 5905 5904 5903 5902 5901 5900 5899 5898 5897 5895 5894 5893 5891 5890 5889 5888 5886 5885 5884 5883 5882 5881 5879 5878 5877 5875 5874 5874 5874 5875 5876 5876 5876 5877 5877 5877 5878 5878 5878 5879 5879 5879 5879 5879 5879
5910 5909 5909 5907 5906 5905 5905 5904 5903 5902 5900 5899 5898 5897 5895 5894 5893 5892 5890 5889 5887 5886 5885 5884 5883 5882 5880 5880 5878 5877 5877 5876 5876 5876 5877 5877 5877 5877 5878 5878 5878 5878 5878 5879 5879 5879 5879 5879 5879
5911 5910 5910 5909 5908 5907 5906 5905 5904 5903 5902 5901 5900 5898 5897 5895 5894 5893 5891 5890 5888 5887 5886 5884 5884 5883 5881 5881 5880 5879 5878 5878 5877 5877 5877 5877 5877 5878 5878 5879 5879 5879 5879 5879 5879 5879 5879 5879 5878
5911 5911 5910 5909 5909 5908 5907 5906 5905 5904 5903 5902 5901 5899 5898 5897 5895 5893 5892 5891 5889 5888 5887 5885 5884 5884 5883 5882 5881 5880 5880 5879 5879 5878 5878 5878 5879 5879 5879 5879 5879 5879 5879 5880 5880 5880 5879 5879 5878
5912 5911 5911 5910 5909 5909 5908 5907 5906 5905 5904 5903 5902 5901 5900 5898 5896 5895 5893 5892 5890 5889 5888 5887 5886 5885 5884 5883 5882 5881 5881 5880 5880 5879 5879 5879 5879 5879 5879 5879 5879 5879 5879 5879 5879 5879 5879 5878 5877
5912 5912 5912 5911 5910 5909 5909 5908 5907 5906 5905 5904 5903 5902 5901 5899 5898 5896 5894 5893 5891 5890 5889 5887 5887 5886 5885 5884 5883 5882 5881 5881 5880 5880 5880 5879 5879 5880 5880 5880 5879 5879 5879 5879 5879 5878 5878 5877 5877
5912 5913 5913 5912 5911 5910 5911 5909 5908 5907 5906 5905 5904 5903 5901 5900 5899 5897 5895 5894 5892 5891 5889 5888 5888 5887 5886 5885 5884 5883 5882 5881 5881 5880 5880 5880 5880 5880 5880 5879 5879 5879 5879 5879 5878 5878 5877 5876 5876
5912 5912 5912 5913 5911 5910 5910 5909 5908 5907 5906 5905 5904 5903 5902 5901 5900 5898 5896 5895 5893 5892 5890 5889 5888 5887 5886 5885 5884 5883 5882 5882 5881 5881 5881 5880 5880 5879 5879 5879 5879 5879 5878 5878 5878 5877 5876 5875 5875
5911 5911 5911 5912 5911 5910 5909 5909 5908 5907 5906 5906 5905 5903 5902 5901 5900 5899 5897 5896 5894 5893 5891 5890 5889 5887 5886 5885 5884 5883 5883 5882 5882 5881 5881 5880 5880 5879 5879 5878 5878 5878 5877 5877 5877 5876 5875 5874 5874
5910 5910 5911 5911 5910 5909 5909 5908 5908 5907 5906 5906 5905 5904 5902 5901 5900 5899 5897 5896 5894 5893 5892 5891 5889 5888 5886 5885 5884 5884 5883 5882 5881 5881 5880 5880 5879 5879 5878 5878 5877 5877 5876 5876 5875 5875 5874 5873 5873
5909 5909 5910 5910 5909 5908 5907 5908 5908 5907 5906 5905 5904 5903 5902 5901 5899 5898 5897 5896 5894 5893 5892 5891 5890 5888 5887 5886 5885 5884 5883 5882 5882 5881 5880 5879 5878 5878 5877 5877 5877 5876 5875 5875 5874 5873 5872 5872 5871
5907 5908 5908 5908 5907 5907 5906 5907 5907 5906 5905 5904 5903 5902 5901 5900 5899 5898 5897 5895 5894 5893 5892 5891 5890 5889 5887 5886 5885 5884 5883 5882 5881 5881 5880 5879 5878 5877 5877 5876 5875 5875 5874 5873 5872 5871 5871 5870 5869
5905 5906 5906 5906 5906 5905 5906 5905 5905 5904 5904 5903 5902 5901 5900 5899 5898 5897 5895 5894 5893 5892 5891 5890 5889 5888 5887 5886 5884 5883 5882 5881 5881 5879 5879 5878 5877 5876 5876 5875 5874 5873 5872 5871 5870 5870 5869 5868 5867
5903 5903 5903 5903 5903 5904 5903 5903 5904 5903 5902 5902 5901 5900 5899 5898 5897 5895 5894 5893 5892 5891 5890 5889 5888 5887 5886 5885 5883 5882 5881 5880 5879 5878 5877 5876 5875 5874 5874 5873 5872 5871 5870 5869 5868 5867 5866 5866 5865
5900 5900 5900 5901 5901 5901 5902 5901 5901 5901 5900 5900 5899 5898 5897 5896 5895 5894 5893 5892 5891 5890 5889 5888 5887 5886 5885 5883 5882 5881 5880 5879 5877 5876 5875 5874 5873 5872 5871 5870 5870 5869 5868 5867 5866 5865 5864 5863 5862
5896 5897 5897 5897 5898 5899 5899 5898 5899 5898 5898 5897 5897 5896 5895 5894 5893 5892 5891 5890 5889 5889 5888 5887 5886 5885 5884 5882 5881 5879 5878 5876 5875 5874 5873 5871 5870 5869 5868 5868 5867 5866 5865 5864 5864 5863 5862 5861 5860
5893 5894 5895 5895 5894 5895 5895 5895 5896 5895 5895 5894 5893 5893 5892 5891 5890 5890 5889 5888 5887 5887 5886 5885 5884 5883 5882 5880 5879 5877 5876 5874 5873 5871 5870 5869 5867 5866 5865 5865 5864 5863 5862 5861 5861 5860 5859 5858 5857
5889 5889 5891 5891 5890 5890 5891 5892 5892 5892 5892 5891 5890 5890 5889 5889 5888 5887 5886 5885 5885 5884 5884 5883 5881 5880 5879 5878 5876 5875 5874 5872 5870 5869 5867 5866 5864 5863 5862 5861 5861 5860 5859 5858 5858 5857 5856 5855 5854
5885 5886 5886 5886 5886 5886 5887 5888 5889 5889 5888 5888 5887 5887 5886 5885 5885 5884 5883 5883 5882 5881 5880 5880 5879 5878 5876 5875 5874 5872 5870 5869 5867 5866 5864 5863 5861 5860 5859 5858 5857 5856 5855 5854 5854 5853 5852 5851 5851
5881 5881 5881 5882 5882 5882 5882 5886 5885 5885 5884 5884 5883 5883 5882 5882 5881 5880 5880 5879 5879 5878 5877 5876 5875 5874 5873 5871 5870 5869 5867 5866 5864 5863 5861 5859 5858 5857 5856 5855 5853 5852 5851 5850 5849 5849 5848 5847 5847
5875 5876 5877 5877 5877 5877 5877 5882 5880 5880 5880 5879 5879 5879 5878 5878 5877 5877 5876 5875 5875 5874 5873 5873 5872 5871 5869 5868 5866 5864 5863 5862 5860 5858 5857 5855 5854 5853 5852 5850 5849 5848 5847 5846 5845 5844 5843 5843 5842